www.pogodaiklimat.ru

Погода и климат >> Архив погоды >> Россия >> Якутия >> Намцы


ПОГОДА в Намцах

  • Прогноз погоды в Намцах
  • Монитор погоды в Намцах
  • Климат города

АРХИВ ПОГОДЫ в Намцах

Время (UTC), дата Ветер
(напр.,м/с)
 
Видим.   Явления Облачность Т
(С)
Тd
(С)
f
(%)
Тe
(С)
Тes
(С)
Комфортность P
(гПа)
Po
(гПа)
Тmin
(С)
Tmax
(С)
R
(мм)
R24
(мм)
S
(см)
03 13.11 штиль 0 50 км в посл. час снег 8/5 300 м
[St Ci fib]
-27.7 -29.4 85 -28 -28 1026.7 1014.0
06 13.11 штиль 0 50 км {снег} 3/1 600 м
[St Ci fib]
-26.2 -28.0 85 -26 -26 1026.7 1014.0
09 13.11 СЗ 1 50 км ясно -28.8 -30.5 85 -33 -33 опасность
обморожения
1026.7 1013.9
12 13.11 СЗ 1 50 км ясно -30.0 -31.7 85 -34 -34 опасность
обморожения
1026.8 1013.9 -25.5 0.0
15 13.11 З 1 50 км ясно -31.3 -33.6 80 -36 -36 опасность
обморожения
1026.3 1013.3
18 13.11 штиль 0 50 км ясно -32.4 -34.8 79 -32 -32 опасность
обморожения
1025.7 1012.7
21 13.11 штиль 0 50 км ясно -33.0 -34.7 85 -33 -33 опасность
обморожения
1024.5 1011.5
00 14.11 Ю 1 50 км 10/10 90 м
[St]
-29.9 -32.3 79 -34 -34 опасность
обморожения
1024.0 1011.3 -33.4 13
03 14.11 штиль 0 50 км 9/5 90 м
[St Cc]
-25.7 -27.4 86 -26 -26 1023.1 1010.5
06 14.11 Ю 1 20 км снежные зёрна 10/10 60 м
[St]
-25.3 -27.0 86 -29 -29 1023.5 1010.9
09 14.11 З 1 10 км снежные зёрна 10/10 60 м
[St]
-26.4 -28.2 85 -30 -30 1023.5 1010.8
12 14.11 СЗ 1 20 км слабый снег 6/1 300 м
[St As trans]
-29.7 -31.5 84 -34 -34 опасность
обморожения
1024.3 1011.5 -22.8 0.2
15 14.11 СЗ 1 50 км {снег} 3/0
[As trans]
-32.4 -34.2 84 -37 -37 опасность
обморожения
1024.6 1011.6
18 14.11 С 3 50 км {снег} 3/0
[As trans]
-34.1 -36.4 80 -45 -45 опасность
обморожения
1025.0 1011.9
21 14.11 СЗ 1 20 км слабый снег 6/0
[As trans]
-34.3 -36.4 81 -39 -39 опасность
обморожения
1024.3 1011.2
00 15.11 штиль 0 50 км слабый снег 6/0
[Ac As]
-33.9 -36.1 80 -34 -34 опасность
обморожения
1024.3 1011.2 -34.4 0.0 14
03 15.11 С 1 50 км слабый снег 10/0
[Ac trans Cs]
-31.3 -33.6 80 -36 -35 опасность
обморожения
1023.3 1010.4
06 15.11 штиль 0 50 км слабый снег 10/0
[Ac As Cs]
-31.4 -32.7 88 -31 -31 опасность
обморожения
1022.6 1009.7
09 15.11 штиль 0 50 км {снег} 5/0
[Cs]
-33.2 -35.6 79 -33 -33 опасность
обморожения
1022.2 1009.2
12 15.11 штиль 0 50 км {снег} 3/0
[Ci fib]
-36.0 -38.4 78 -36 -36 опасность
обморожения
1020.9 1007.8 -29.6 0.3
15 15.11 штиль 0 50 км ясно -36.7 -39.1 78 -37 -37 опасность
обморожения
1019.6 1006.4
18 15.11 штиль 0 50 км ясно -36.6 -38.7 81 -37 -37 опасность
обморожения
1017.9 1004.7
21 15.11 штиль 0 50 км ясно -34.8 -37.0 80 -35 -35 опасность
обморожения
1016.9 1003.9
00 16.11 штиль 0 50 км ясно -34.4 -36.7 79 -34 -34 опасность
обморожения
1016.4 1003.4 -37.6 14
03 16.11 З 1 50 км ясно -26.8 -28.6 85 -31 -30 опасность
обморожения
1016.4 1003.8
06 16.11 штиль 0 50 км 10/10 540 м
[St]
-25.6 -27.4 85 -26 -26 1018.1 1005.6
09 16.11 штиль 0 20 км слабый снег 10/10 90 м
[St]
-25.7 -27.8 82 -26 -26 1019.7 1007.2
12 16.11 штиль 0 20 км слабый снег 10/10 90 м
[St]
-27.3 -29.1 85 -27 -27 1022.0 1009.3 -25.4 0.0
15 16.11 штиль 0 20 км слабый снег 10/10 120 м
[St]
-28.8 -30.5 85 -29 -29 1023.4 1010.6
18 16.11 С 2 20 км слабый снег 10/10 150 м
[St]
-28.0 -29.8 84 -35 -35 опасность
обморожения
1024.1 1011.4
21 16.11 С 1 20 км слабый снег 10/10 150 м
[St]
-29.2 -30.9 85 -33 -33 опасность
обморожения
1025.1 1012.3
00 17.11 СЗ 1 10 км слабый снег 10/0
[Ac As]
-30.4 -32.1 85 -35 -35 опасность
обморожения
1026.2 1013.2 -30.5 0.8 14
03 17.11 СЗ 1 10 км слабый снег 10/10 120 м
[St]
-29.5 -31.3 84 -34 -34 опасность
обморожения
1026.3 1013.5
06 17.11 СЗ 1 20 км слабый снег 10/5 200 м
[St As trans Cs]
-29.5 -31.3 84 -34 -34 опасность
обморожения
1026.7 1013.9
09 17.11 СЗ 1 10 км слабый снег 10/5 100 м
[St As op]
-29.9 -31.7 84 -34 -34 опасность
обморожения
1026.8 1014.0
12 17.11 СЗ 1 10 км слабый снег 10/0
[As op]
-30.3 -32.7 79 -34 -34 опасность
обморожения
1026.9 1013.9 -29.1 0.9
15 17.11 штиль 0 10 км слабый снег 10/0
[As trans]
-30.7 -32.3 86 -31 -31 опасность
обморожения
1025.9 1012.9
18 17.11 штиль 0 20 км слабый снег 10/0
[As trans]
-31.2 -33.6 79 -31 -31 опасность
обморожения
1025.5 1012.5
21 17.11 С 1 20 км слабый снег 10/0
[As trans]
-31.9 -34.3 79 -36 -36 опасность
обморожения
1024.8 1011.9
00 18.11 штиль 0 20 км слабый снег 8/0
[As trans]
-34.3 -36.4 81 -34 -34 опасность
обморожения
1024.6 1011.5 -34.3 0.6 15
03 18.11 С 1 50 км {снег} 3/0
[Ci fib]
-33.9 -36.1 80 -38 -38 опасность
обморожения
1023.9 1010.9 -34.8
06 18.11 С 1 20 км слабый снег 10/0
[As trans]
-32.9 -35.1 81 -37 -37 опасность
обморожения
1024.1 1011.1
09 18.11 СЗ 1 20 км слабый снег 8/0
[As trans]
-35.8 -38.0 80 -41 -41 опасность
обморожения
1024.6 1011.5
12 18.11 СЗ 1 2000 м слабый снег 4/0
[As trans]
-38.4 -40.7 79 -43 -43 опасность
обморожения
1024.9 1011.6 -32.9 0.2
15 18.11 СЗ 1 500 м слабый снег {туман} туман 3/0
[As trans]
-39.3 -41.6 79 -44 -44 опасность
обморожения
1025.1 1011.8
18 18.11 СЗ 1 500 м слабый снег {туман} туман 3/0
[As trans]
-39.2 -41.1 82 -44 -44 опасность
обморожения
1025.4 1012.1
21 18.11 СЗ 1 500 м слабый снег {туман} туман 4/0
[As trans]
-39.5 -41.6 80 -45 -45 опасность
обморожения
1025.5 1012.2
00 19.11 штиль 0 500 м туман {снег} ясно -41.4 -43.7 78 -41 -41 опасность
обморожения
1026.0 1012.5 -41.4 0.0 15
03 19.11 штиль 0 500 м туман ясно -37.9 -40.3 78 -38 -38 опасность
обморожения
1026.0 1012.7
06 19.11 штиль 0 50 км {туман} ясно -36.3 -38.7 78 -36 -36 опасность
обморожения
1025.6 1012.3
09 19.11 штиль 0 500 м туман ясно -39.6 -41.6 81 -40 -40 опасность
обморожения
1025.2 1011.9
12 19.11 штиль 0 500 м туман ясно -41.5 -43.7 79 -42 -42 опасность
обморожения
1023.9 1010.5 -36.3
15 19.11 штиль 0 500 м туман ясно -41.4 -43.7 78 -41 -41 опасность
обморожения
1021.7 1008.3
18 19.11 штиль 0 500 м туман ясно -41.0 -43.1 80 -41 -41 опасность
обморожения
1018.7 1005.3
21 19.11 ЮЗ 1 500 м туман ясно -38.1 -40.3 80 -43 -43 опасность
обморожения
1015.5 1002.3
00 20.11 Ю 1 20 км {туман} ясно -37.0 -39.1 81 -42 -42 опасность
обморожения
1012.0 998.9 -41.9 15

 

Местоположение метеостанции Намцы (Якутия, Россия): широта 62.72 долгота 129.60 высота над уровнем моря 90 м.

В архиве по умолчанию представлена погода в Намцах за последнюю неделю. Архивные данные за месяц целиком и за предыдущие месяцы, начиная с января 2011 года, Вы можете получить, выбрав интересующий диапазон дат из раскрывающегося списка и нажав кнопку "Ввод!".

Внимание! Время в таблицах - всемирное. Для получения местного времени необходимо прибавить поправку, которая в Намцах равна 9 ч.

Смотрите также архив погоды в соседних городах и на ближайших метеорологических станциях:

Погода в Якутске (Якутия, Россия) (80 км)
Погода в Батамае (Якутия, Россия) (90 км)
Погода в Верхоянском Перевозе (Якутия, Россия) (138 км)
Погода в Покровске (Якутия, Россия) (140 км)
Погода в Бердигестяхе (Якутия, Россия) (143 км)
Погода в Сеген-Кюели (Якутия, Россия) (147 км)
Погода в Чурапче (Якутия, Россия) (173 км)
Погода в Сангаре (Якутия, Россия) (175 км)
Погода в Ытык-Кюёле (Якутия, Россия) (204 км)
Погода в Сого-Хае (Якутия, Россия) (235 км)

Пояснения к столбцам:

Ветер - указаны скорость ветра в м/с - средняя за 10 мин, порывы в срок и между сроками (в фигурных скобках) и направление, откуда дует ветер: С - северный, СВ - северо-восточный, В - восточный, ЮВ - юго-восточный, Ю - южный, ЮЗ - юго-западный, З - западный, СЗ - северо-западный.
Видимость - горизонтальная дальность видимости в метрах или километрах. При видимости от 1 до 10 км при отсутствии осадков обычно наблюдается дымка, при ухудшении видимости до 1 км и менее - туман. В сухую погоду видимость может ухудшаться дымом, пылью или мглою.
Явления - указаны атмосферные явления, наблюдавшиеся в срок или в последний час перед сроком; фигурными скобками обозначены явления, наблюдавшиеся между сроками (за 1-3 часа до срока); квадратными скобками обозначены град или гололедные отложения с указанием их диаметра в мм.
Облачность - указаны через наклонную черту общая и нижняя облачность в баллах и высота нижней границы облаков в метрах; квадратными скобками обозначены формы облаков: Ci - перистые, Cs - перисто-слоистые, Cc - перисто-кучевые, Ac - высококучевые, As - высокослоистые, Sc - слоисто-кучевые, Ns - слоисто-дождевые, Cu - кучевые, Cb - кучево-дождевые. Подробнее классификацию облаков см. в Атласе облаков (PDF).
T - Температура воздуха - температура, измеренная на высоте 2 м над землей.
Td - Температура точки росы - температура, при понижении до которой содержащийся в воздухе водяной пар достигнет насыщения.
f - Относительная влажность воздуха - влажноcть воздуха, измеренная на высоте 2 м над землей.
Te - Эффективная температура - температура, которую ощущает одетый по сезону человек в тени. Характеристика душности погоды. При расчете учитывается влияние влажности воздуха и скорости ветра на теплоощущения человека.
Tes - Эффективная температура на солнце - температура, которую ощущает человек, с поправкой на солнечный нагрев. Характеристика знойности погоды. Зависит от высоты солнца над горизонтом, облачности и скорости ветра. Ночью, в пасмурную погоду, а также при ветре 12 м/с и более поправка равна нулю.
P - Атмосферное давление - приведенное к уровню моря атмосферное давление.
Po - Атмосферное давление - измеренное на уровне метеостанции атмосферное давление.
Tmin - Минимальная температура - минимум температуры воздуха на высоте 2 м над землей.
Tmax - Максимальная температура - максимум температуры воздуха на высоте 2 м над землей.
R - Количество осадков - Количество выпавших осадков за период времени, мм. При наведении курсора мыши на число - период времени, за который выпало указанное количество осадков.
R24 - Количество осадков - Количество выпавших осадков за 24 часа, мм.
S - Снежный покров - Высота снежного покрова, см. При наведении курсора мыши на число - состояние снежного покрова и степень покрытия местности в баллах.